Location: Nairn
(57.5833°N, 3.8667°W)
Time: 08:28:12
(UTC+00:00)

Vanguard 1 - Pass Details

Date: 05 December 2020
Orbit: 649 x 3834 km, 34.3° (Epoch: 15 January)

Event Time Altitude Azimuth Distance (km) Brightness Sun altitude
Rises 06:02:04 0° 223° (SW) 3,469 - -19.3°
Exits shadow 06:02:48 - 218° (SW) 3,333 12.5 -19.2°
Reaches altitude 10° 06:06:59 10° 186° (S) 3,047 12.7 -18.7°
Maximum altitude 06:08:34 11° 173° (S) 3,174 12.9 -18.5°
Drops below altitude 10° 06:10:18 10° 161° (SSE) 3,437 13.3 -18.3°
Sets 06:17:50 0° 130° (SE) 5,338 15.0 -17.3°
